Preview of NWS' New Version of Forecast
This preview is not operational and should not be used for support decisions.

Regional Weather Roundup (RWR)

Issued by National Weather Service (NWS)

                            
000
ASUS43 KBIS 190702
RWRND 

NORTH DAKOTA REGIONAL WEATHER ROUNDUP
NATIONAL WEATHER SERVICE BISMARCK ND
200 AM CDT FRI APR 19 2019

NOTE: "FAIR" INDICATES FEW OR NO CLOUDS BELOW 12,000 FEET WITH NO
SIGNIFICANT WEATHER AND/OR OBSTRUCTIONS TO VISIBILITY.


NDZ001>003-009>011-017-190800-
NORTHWEST NORTH DAKOTA
  
CITY           SKY/WX    TMP DP  RH WIND       PRES   REMARKS
WILLISTON      CLEAR     39  28  64 CALM      29.97F                  
MINOT          PTCLDY    41  33  73 SW6       29.98F                  
MINOT AFB      CLEAR     40  33  77 SW10      29.97F                  
$$
 
NDZ018>021-031>035-040>046-190800-
SOUTHWEST NORTH DAKOTA
  
CITY           SKY/WX    TMP DP  RH WIND       PRES   REMARKS
BISMARCK       CLEAR     35  32  88 CALM      30.06R                  
DICKINSON      PTCLDY    37  26  64 S9        30.00F                  
GARRISON         N/A     34  31  88 S5        30.01S                  
HETTINGER ARPT PTCLDY    38  28  67 SE3       30.07S                  
$$
 
NDZ004>008-012>016-024-026-027-054-190800-
NORTHEAST NORTH DAKOTA
  
CITY           SKY/WX    TMP DP  RH WIND       PRES   REMARKS
GRAND FORKS    CLEAR     38  34  85 W6        30.02S                  
DEVILS LAKE    CLEAR     36  33  89 SW7       30.02F                  
$$
 
NDZ022-023-025-028>030-036>039-047>053-190800-
SOUTHEAST NORTH DAKOTA
  
CITY           SKY/WX    TMP DP  RH WIND       PRES   REMARKS
FARGO          CLEAR     37  34  89 W7        30.04S                  
JAMESTOWN      CLEAR     36  34  92 W5        30.04S                  
$$